Location: Igri�s
(42.2144°N, 0.4320°W)
Time: 14:25:32
(UTC+00:00)

Cosmos 1697 Rocket - Pass Details

Date: 13 August 2020
Orbit: 834 x 842 km, 71.0° (Epoch: 24 September)

Event Time Altitude Azimuth Distance (km) Brightness Sun altitude
Rises 19:30:55 0° 338° (NNW) 3,389 6.6 -5.3°
Reaches altitude 10° 19:33:24 10° 342° (NNW) 2,452 5.8 -5.7°
Maximum altitude 19:38:58 61° 63° (ENE) 948 2.8 -6.6°
Drops below altitude 10° 19:44:29 10° 143° (SE) 2,439 4.6 -7.5°
Enters shadow 19:45:31 - 145° (SE) 2,823 4.9 -7.7°
